�������C�����ː����j�^�v���󋵏��
Date,Time,Cs137(Bq/L),Cs134(Bq/L),�S��(Bq/L)
2016/10/30,00:00,1.0,0.10,ND
2016/10/30,00:10,1.1,0.11,ND
2016/10/30,00:20,1.1,0.090,ND
2016/10/30,00:30,1.1,0.080,ND
2016/10/30,00:40,1.0,0.094,ND
2016/10/30,00:50,0.99,0.097,ND
2016/10/30,01:00,0.99,0.093,ND
2016/10/30,01:10,0.99,0.095,ND
2016/10/30,01:20,0.91,0.096,ND
2016/10/30,01:30,0.89,0.12,ND
2016/10/30,01:40,0.91,0.12,ND
2016/10/30,01:50,0.96,0.13,ND
2016/10/30,02:00,0.92,0.12,ND
2016/10/30,02:10,0.95,0.14,ND
2016/10/30,02:20,0.98,0.14,ND
2016/10/30,02:30,0.99,0.14,ND
2016/10/30,02:40,0.98,0.14,ND
2016/10/30,02:50,0.98,0.13,ND
2016/10/30,03:00,0.95,0.13,ND
2016/10/30,03:10,0.95,0.14,ND
2016/10/30,03:20,0.97,0.13,ND
2016/10/30,03:30,0.97,0.13,ND
2016/10/30,03:40,0.94,0.12,ND
2016/10/30,03:50,0.94,0.13,ND
2016/10/30,04:00,1.0,0.12,ND
2016/10/30,04:10,1.0,0.12,ND
2016/10/30,04:20,1.0,0.12,ND
2016/10/30,04:30,1.1,0.13,ND
2016/10/30,04:40,1.1,0.13,ND
2016/10/30,04:50,1.1,0.12,ND
2016/10/30,05:00,1.1,0.12,ND
2016/10/30,05:10,1.2,0.13,ND
2016/10/30,05:20,1.1,0.12,ND
2016/10/30,05:30,1.1,0.13,ND
2016/10/30,05:40,1.2,0.13,ND
2016/10/30,05:50,1.1,0.14,ND
2016/10/30,06:00,1.2,0.14,ND
2016/10/30,06:10,1.1,0.14,ND
2016/10/30,06:20,1.2,0.14,ND
2016/10/30,06:30,1.2,0.13,ND
2016/10/30,06:40,1.2,0.14,ND
2016/10/30,06:50,1.3,0.15,ND
2016/10/30,07:00,1.3,0.16,ND
2016/10/30,07:10,1.4,0.17,ND
2016/10/30,07:20,1.4,0.16,ND
2016/10/30,07:30,1.4,0.16,ND
2016/10/30,07:40,1.4,0.15,ND
2016/10/30,07:50,1.3,0.14,ND
2016/10/30,08:00,1.3,0.14,ND
2016/10/30,08:10,1.3,0.14,ND
2016/10/30,08:20,1.3,0.15,ND
2016/10/30,08:30,1.4,0.15,ND
2016/10/30,08:40,1.3,0.16,ND
2016/10/30,08:50,1.4,0.16,ND
2016/10/30,09:00,1.3,0.17,ND
2016/10/30,09:10,1.3,0.16,ND
2016/10/30,09:20,1.3,0.16,ND
2016/10/30,09:30,1.3,0.15,ND
2016/10/30,09:40,1.4,0.14,ND
2016/10/30,09:50,1.3,0.13,ND
2016/10/30,10:00,1.3,0.12,ND
2016/10/30,10:10,1.3,0.12,ND
2016/10/30,10:20,1.2,0.11,ND
2016/10/30,10:30,1.2,0.12,ND
2016/10/30,10:40,1.1,0.12,ND
2016/10/30,10:50,1.1,0.12,ND
2016/10/30,11:00,1.1,0.13,ND
2016/10/30,11:10,1.0,0.12,ND
2016/10/30,11:20,1.0,0.12,ND
2016/10/30,11:30,1.0,0.12,ND
2016/10/30,11:40,1.0,0.12,ND
2016/10/30,11:50,1.0,0.12,ND
2016/10/30,12:00,0.98,0.11,ND
2016/10/30,12:10,0.98,0.11,ND
2016/10/30,12:20,0.95,0.10,ND
2016/10/30,12:30,0.96,0.094,ND
2016/10/30,12:40,0.99,0.087,ND
2016/10/30,12:50,0.96,0.090,ND
2016/10/30,13:00,0.97,0.090,ND
2016/10/30,13:10,0.94,0.096,ND
2016/10/30,13:20,0.93,0.099,ND
2016/10/30,13:30,0.91,0.11,ND
2016/10/30,13:40,0.90,0.11,ND
2016/10/30,13:50,0.87,0.11,ND
2016/10/30,14:00,0.88,0.11,ND
2016/10/30,14:10,0.91,0.10,ND
2016/10/30,14:20,0.94,0.091,ND
2016/10/30,14:30,0.95,0.090,ND
2016/10/30,14:40,0.92,0.099,ND
2016/10/30,14:50,0.94,0.10,ND
2016/10/30,15:00,0.95,0.099,ND
2016/10/30,15:10,0.97,0.10,ND
2016/10/30,15:20,0.96,0.10,ND
2016/10/30,15:30,0.96,0.11,ND
2016/10/30,15:40,0.99,0.10,ND
2016/10/30,15:50,1.0,0.10,ND
2016/10/30,16:00,1.0,0.10,ND
2016/10/30,16:10,1.0,0.10,ND
2016/10/30,16:20,0.97,0.11,ND
2016/10/30,16:30,0.97,0.11,ND
2016/10/30,16:40,0.99,0.11,ND
2016/10/30,16:50,1.0,0.12,ND
2016/10/30,17:00,1.0,0.12,ND
2016/10/30,17:10,1.0,0.13,ND
2016/10/30,17:20,1.1,0.13,ND
2016/10/30,17:30,1.1,0.12,ND
2016/10/30,17:40,1.1,0.12,ND
2016/10/30,17:50,1.0,0.12,ND
2016/10/30,18:00,1.0,0.11,ND
2016/10/30,18:10,1.0,0.11,ND
2016/10/30,18:20,1.0,0.12,ND
2016/10/30,18:30,1.1,0.13,ND
2016/10/30,18:40,1.1,0.13,ND
2016/10/30,18:50,1.2,0.14,ND
2016/10/30,19:00,1.2,0.14,ND
2016/10/30,19:10,1.2,0.15,ND
2016/10/30,19:20,1.3,0.15,ND
2016/10/30,19:30,1.3,0.15,ND
2016/10/30,19:40,1.3,0.16,ND
2016/10/30,19:50,1.3,0.16,ND
2016/10/30,20:00,1.4,0.16,ND
2016/10/30,20:10,1.3,0.15,ND
2016/10/30,20:20,1.4,0.18,ND
2016/10/30,20:30,1.4,0.17,ND
2016/10/30,20:40,1.4,0.18,ND
2016/10/30,20:50,1.4,0.16,ND
2016/10/30,21:00,1.4,0.16,ND
2016/10/30,21:10,1.3,0.15,ND
2016/10/30,21:20,1.3,0.15,ND
2016/10/30,21:30,1.3,0.15,ND
2016/10/30,21:40,1.3,0.15,ND
2016/10/30,21:50,1.2,0.16,ND
2016/10/30,22:00,1.3,0.15,ND
2016/10/30,22:10,1.3,0.14,ND
2016/10/30,22:20,1.3,0.12,ND
2016/10/30,22:30,1.3,0.12,ND
2016/10/30,22:40,1.3,0.14,ND
2016/10/30,22:50,1.3,0.13,ND
2016/10/30,23:00,1.3,0.13,ND
2016/10/30,23:10,1.2,0.12,ND
2016/10/30,23:20,1.2,0.12,ND
2016/10/30,23:30,1.2,0.12,ND
2016/10/30,23:40,1.2,0.13,ND
2016/10/30,23:50,1.2,0.13,ND
